Year,Month,Day,Hour,Minute,Value (Times are PST for temperature in C)
2010,04,01,00,00,1.10
2010,04,01,00,01,1.10
2010,04,01,00,02,1.10
2010,04,01,00,03,1.00
2010,04,01,00,04,1.00
2010,04,01,00,05,1.00
2010,04,01,00,06,1.00
2010,04,01,00,07,1.00
2010,04,01,00,08,1.00
2010,04,01,00,09,1.10
2010,04,01,00,10,1.10
2010,04,01,00,11,1.00
2010,04,01,00,12,1.00
2010,04,01,00,13,1.00
2010,04,01,00,14,1.00
2010,04,01,00,15,1.00
2010,04,01,00,16,1.00
2010,04,01,00,17,1.00
2010,04,01,00,18,1.10
2010,04,01,00,19,1.10
2010,04,01,00,20,1.10
2010,04,01,00,21,1.10
2010,04,01,00,22,1.10
2010,04,01,00,23,1.00
2010,04,01,00,24,1.00
2010,04,01,00,25,1.00
2010,04,01,00,26,1.00
2010,04,01,00,27,1.00
2010,04,01,00,28,1.00
2010,04,01,00,29,0.90
2010,04,01,00,30,0.90
2010,04,01,00,31,0.90
2010,04,01,00,32,0.90
2010,04,01,00,33,0.80
2010,04,01,00,34,0.80
2010,04,01,00,35,0.80
2010,04,01,00,36,0.80
2010,04,01,00,37,0.80
2010,04,01,00,38,0.80
2010,04,01,00,39,0.80
2010,04,01,00,40,0.80
2010,04,01,00,41,0.80
2010,04,01,00,42,0.80
2010,04,01,00,43,0.70
2010,04,01,00,44,0.70
2010,04,01,00,45,0.70
2010,04,01,00,46,0.60
2010,04,01,00,47,0.60
2010,04,01,00,48,0.60
2010,04,01,00,49,0.60
2010,04,01,00,50,0.50
2010,04,01,00,51,0.50
2010,04,01,00,52,0.40
2010,04,01,00,53,0.50
2010,04,01,00,54,0.50
2010,04,01,00,55,0.50
2010,04,01,00,56,0.60
2010,04,01,00,57,0.60
2010,04,01,00,58,0.60
2010,04,01,00,59,0.60
2010,04,01,01,00,0.70
2010,04,01,01,01,0.70
2010,04,01,01,02,0.70
2010,04,01,01,03,0.70
2010,04,01,01,04,0.70
2010,04,01,01,05,0.70
2010,04,01,01,06,0.70
2010,04,01,01,07,0.70
2010,04,01,01,08,0.60
2010,04,01,01,09,0.60
2010,04,01,01,10,0.60
2010,04,01,01,11,0.60
2010,04,01,01,12,0.60
2010,04,01,01,13,0.50
2010,04,01,01,14,0.50
2010,04,01,01,15,0.50
2010,04,01,01,16,0.50
2010,04,01,01,17,0.50
2010,04,01,01,18,0.50
2010,04,01,01,19,0.50
2010,04,01,01,20,0.60
2010,04,01,01,21,0.60
2010,04,01,01,22,0.60
2010,04,01,01,23,0.70
2010,04,01,01,24,0.70
2010,04,01,01,25,0.70
2010,04,01,01,26,0.80
2010,04,01,01,27,0.80
2010,04,01,01,28,0.80
2010,04,01,01,29,0.80
2010,04,01,01,30,0.80
2010,04,01,01,31,0.80
2010,04,01,01,32,0.80
2010,04,01,01,33,0.90
2010,04,01,01,34,0.90
2010,04,01,01,35,0.90
2010,04,01,01,36,0.90
2010,04,01,01,37,0.90
2010,04,01,01,38,0.90
2010,04,01,01,39,0.90
2010,04,01,01,40,0.90
2010,04,01,01,41,0.90
2010,04,01,01,42,0.90
2010,04,01,01,43,0.90
2010,04,01,01,44,0.90
2010,04,01,01,45,1.00
2010,04,01,01,46,1.00
2010,04,01,01,47,1.00
2010,04,01,01,48,0.90
2010,04,01,01,49,1.00
2010,04,01,01,50,0.90
2010,04,01,01,51,0.90
2010,04,01,01,52,1.00
2010,04,01,01,53,1.00
2010,04,01,01,54,1.10
2010,04,01,01,55,1.10
2010,04,01,01,56,1.20
2010,04,01,01,57,1.20
2010,04,01,01,58,1.30
2010,04,01,01,59,1.30
2010,04,01,02,00,1.30
2010,04,01,02,01,1.30
2010,04,01,02,02,1.30
2010,04,01,02,03,1.30
2010,04,01,02,04,1.30
2010,04,01,02,05,1.30
2010,04,01,02,06,1.30
2010,04,01,02,07,1.30
2010,04,01,02,08,1.30
2010,04,01,02,09,1.30
2010,04,01,02,10,1.30
2010,04,01,02,11,1.30
2010,04,01,02,12,1.30
2010,04,01,02,13,1.30
2010,04,01,02,14,1.30
2010,04,01,02,15,1.30
2010,04,01,02,16,1.30
2010,04,01,02,17,1.40
2010,04,01,02,18,1.40
2010,04,01,02,19,1.40
2010,04,01,02,20,1.40
2010,04,01,02,21,1.30
2010,04,01,02,22,1.30
2010,04,01,02,23,1.30
2010,04,01,02,24,1.30
2010,04,01,02,25,1.30
2010,04,01,02,26,1.30
2010,04,01,02,27,1.30
2010,04,01,02,28,1.30
2010,04,01,02,29,1.30
2010,04,01,02,30,1.40
2010,04,01,02,31,1.40
2010,04,01,02,32,1.40
2010,04,01,02,33,1.40
2010,04,01,02,34,1.40
2010,04,01,02,35,1.50
2010,04,01,02,36,1.50
2010,04,01,02,37,1.50
2010,04,01,02,38,1.50
2010,04,01,02,39,1.50
2010,04,01,02,40,1.50
2010,04,01,02,41,1.60
2010,04,01,02,42,1.60
2010,04,01,02,43,1.60
2010,04,01,02,44,1.60
2010,04,01,02,45,1.70
2010,04,01,02,46,1.70
2010,04,01,02,47,1.70
2010,04,01,02,48,1.70
2010,04,01,02,49,1.70
2010,04,01,02,50,1.70
2010,04,01,02,51,1.70
2010,04,01,02,52,1.60
2010,04,01,02,53,1.60
2010,04,01,02,54,1.60
2010,04,01,02,55,1.60
2010,04,01,02,56,1.60
2010,04,01,02,57,1.60
2010,04,01,02,58,1.60
2010,04,01,02,59,1.60
2010,04,01,03,00,1.70
2010,04,01,03,01,1.70
2010,04,01,03,02,1.70
2010,04,01,03,06,1.80
2010,04,01,03,07,1.80
2010,04,01,03,08,1.80
2010,04,01,03,09,1.80
2010,04,01,03,10,1.80
2010,04,01,03,11,1.80
2010,04,01,03,12,1.80
2010,04,01,03,13,1.80
2010,04,01,03,14,1.80
2010,04,01,03,15,1.80
2010,04,01,03,16,1.80
2010,04,01,03,17,1.80
2010,04,01,03,18,1.80
2010,04,01,03,19,1.80
2010,04,01,03,20,1.90
2010,04,01,03,21,1.90
2010,04,01,03,22,1.90
2010,04,01,03,23,1.90
2010,04,01,03,24,2.00
2010,04,01,03,25,2.00
2010,04,01,03,26,2.00
2010,04,01,03,27,1.90
2010,04,01,03,28,1.90
2010,04,01,03,29,1.90
2010,04,01,03,30,1.90
2010,04,01,03,31,1.90
2010,04,01,03,32,1.90
2010,04,01,03,33,1.80
2010,04,01,03,34,1.80
2010,04,01,03,35,1.80
2010,04,01,03,36,1.80
2010,04,01,03,37,1.80
2010,04,01,03,38,1.80
2010,04,01,03,39,1.90
2010,04,01,03,40,1.90
2010,04,01,03,41,1.90
2010,04,01,03,42,1.90
2010,04,01,03,43,1.90
2010,04,01,03,44,1.90
2010,04,01,03,45,1.90
2010,04,01,03,46,1.90
2010,04,01,03,47,1.90
2010,04,01,03,48,1.80
2010,04,01,03,49,1.80
2010,04,01,03,50,1.80
2010,04,01,03,51,1.80
2010,04,01,03,52,1.80
2010,04,01,03,53,1.80
2010,04,01,03,54,1.80
2010,04,01,03,55,1.90
2010,04,01,03,56,1.90
2010,04,01,03,57,1.90
2010,04,01,03,58,2.00
2010,04,01,03,59,2.00
2010,04,01,04,00,2.00
2010,04,01,04,01,2.00
2010,04,01,04,02,2.00
2010,04,01,04,03,2.10
2010,04,01,04,04,2.10
2010,04,01,04,05,2.10
2010,04,01,04,06,2.10
2010,04,01,04,07,2.10
2010,04,01,04,08,2.20
2010,04,01,04,09,2.20
2010,04,01,04,10,2.20
2010,04,01,04,11,2.30
2010,04,01,04,12,2.30
2010,04,01,04,13,2.30
2010,04,01,04,14,2.30
2010,04,01,04,15,2.30
2010,04,01,04,16,2.30
2010,04,01,04,17,2.30
2010,04,01,04,18,2.30
2010,04,01,04,19,2.30
2010,04,01,04,20,2.40
2010,04,01,04,21,2.40
2010,04,01,04,22,2.40
2010,04,01,04,23,2.40
2010,04,01,04,24,2.50
2010,04,01,04,25,2.50
2010,04,01,04,26,2.60
2010,04,01,04,27,2.60
2010,04,01,04,28,2.60
2010,04,01,04,29,2.60
2010,04,01,04,30,2.60
2010,04,01,04,31,2.60
2010,04,01,04,32,2.60
2010,04,01,04,33,2.60
2010,04,01,04,34,2.60
2010,04,01,04,35,2.60
2010,04,01,04,36,2.60
2010,04,01,04,37,2.50
2010,04,01,04,38,2.50
2010,04,01,04,39,2.50
2010,04,01,04,40,2.50
2010,04,01,04,41,2.50
2010,04,01,04,42,2.50
2010,04,01,04,43,2.50
2010,04,01,04,44,2.50
2010,04,01,04,45,2.50
2010,04,01,04,46,2.60
2010,04,01,04,47,2.60
2010,04,01,04,48,2.60
2010,04,01,04,49,2.60
2010,04,01,04,50,2.60
2010,04,01,04,51,2.50
2010,04,01,04,52,2.50
2010,04,01,04,53,2.50
2010,04,01,04,54,2.50
2010,04,01,04,55,2.40
2010,04,01,04,56,2.40
2010,04,01,04,57,2.40
2010,04,01,04,58,2.40
2010,04,01,04,59,2.40
2010,04,01,05,00,2.40
2010,04,01,05,01,2.40
2010,04,01,05,02,2.40
2010,04,01,05,03,2.40
2010,04,01,05,04,2.40
2010,04,01,05,05,2.40
2010,04,01,05,06,2.40
2010,04,01,05,07,2.40
2010,04,01,05,08,2.30
2010,04,01,05,09,2.30
2010,04,01,05,10,2.30
2010,04,01,05,11,2.30
2010,04,01,05,12,2.30
2010,04,01,05,13,2.30
2010,04,01,05,14,2.30
2010,04,01,05,15,2.30
2010,04,01,05,16,2.30
2010,04,01,05,17,2.20
2010,04,01,05,18,2.20
2010,04,01,05,19,2.20
2010,04,01,05,20,2.20
2010,04,01,05,21,2.20
2010,04,01,05,22,2.20
2010,04,01,05,23,2.20
2010,04,01,05,24,2.10
2010,04,01,05,25,2.10
2010,04,01,05,26,2.10
2010,04,01,05,27,2.10
2010,04,01,05,28,2.10
2010,04,01,05,29,2.10
2010,04,01,05,30,2.10
2010,04,01,05,31,2.00
2010,04,01,05,32,2.00
2010,04,01,05,33,2.00
2010,04,01,05,34,2.00
2010,04,01,05,35,2.00
2010,04,01,05,36,2.00
2010,04,01,05,37,2.00
2010,04,01,05,38,2.00
2010,04,01,05,39,1.90
2010,04,01,05,40,1.90
2010,04,01,05,41,1.90
2010,04,01,05,42,1.90
2010,04,01,05,43,1.90
2010,04,01,05,44,1.90
2010,04,01,05,45,1.90
2010,04,01,05,46,1.90
2010,04,01,05,47,1.90
2010,04,01,05,48,1.90
2010,04,01,05,49,1.90
2010,04,01,05,50,1.90
2010,04,01,05,51,1.90
2010,04,01,05,52,1.90
2010,04,01,05,53,1.90
2010,04,01,05,54,1.90
2010,04,01,05,55,1.80
2010,04,01,05,56,1.80
2010,04,01,05,57,1.80
2010,04,01,05,58,1.80
2010,04,01,05,59,1.80
2010,04,01,06,00,1.80
2010,04,01,06,01,1.80
2010,04,01,06,02,1.80
2010,04,01,06,03,1.80
2010,04,01,06,04,1.80
2010,04,01,06,05,1.80
2010,04,01,06,06,1.70
2010,04,01,06,07,1.70
2010,04,01,06,08,1.70
2010,04,01,06,09,1.70
2010,04,01,06,10,1.70
2010,04,01,06,11,1.70
2010,04,01,06,12,1.70
2010,04,01,06,13,1.70
2010,04,01,06,14,1.70
2010,04,01,06,15,1.60
2010,04,01,06,16,1.70
2010,04,01,06,17,1.70
2010,04,01,06,18,1.70
2010,04,01,06,19,1.70
2010,04,01,06,20,1.70
2010,04,01,06,21,1.70
2010,04,01,06,22,1.70
2010,04,01,06,23,1.70
2010,04,01,06,24,1.70
2010,04,01,06,25,1.70
2010,04,01,06,26,1.70
2010,04,01,06,27,1.70
2010,04,01,06,28,1.70
2010,04,01,06,29,1.70
2010,04,01,06,30,1.70
2010,04,01,06,31,1.70
2010,04,01,06,32,1.70
2010,04,01,06,33,1.70
2010,04,01,06,34,1.70
2010,04,01,06,35,1.70
2010,04,01,06,36,1.70
2010,04,01,06,37,1.80
2010,04,01,06,38,1.80
2010,04,01,06,39,1.80
2010,04,01,06,40,1.80
2010,04,01,06,41,1.80
2010,04,01,06,42,1.80
2010,04,01,06,43,1.80
2010,04,01,06,44,1.80
2010,04,01,06,45,1.80
2010,04,01,06,46,1.80
2010,04,01,06,47,1.80
2010,04,01,06,48,1.80
2010,04,01,06,49,1.80
2010,04,01,06,50,1.80
2010,04,01,06,51,1.80
2010,04,01,06,52,1.80
2010,04,01,06,53,1.80
2010,04,01,06,54,1.80
2010,04,01,06,55,1.90
2010,04,01,06,56,1.90
2010,04,01,06,57,1.90
2010,04,01,06,58,1.90
2010,04,01,06,59,1.90
2010,04,01,07,00,1.90
2010,04,01,07,01,1.90
2010,04,01,07,02,1.90
2010,04,01,07,03,1.90
2010,04,01,07,04,1.90
2010,04,01,07,05,1.90
2010,04,01,07,06,1.80
2010,04,01,07,07,1.80
2010,04,01,07,08,1.80
2010,04,01,07,09,1.80
2010,04,01,07,10,1.80
2010,04,01,07,11,1.80
2010,04,01,07,12,1.80
2010,04,01,07,13,1.80
2010,04,01,07,14,1.80
2010,04,01,07,15,1.80
2010,04,01,07,16,1.80
2010,04,01,07,17,1.80
2010,04,01,07,18,1.80
2010,04,01,07,19,1.80
2010,04,01,07,20,1.80
2010,04,01,07,21,1.80
2010,04,01,07,22,1.80
2010,04,01,07,23,1.80
2010,04,01,07,24,1.80
2010,04,01,07,25,1.90
2010,04,01,07,26,1.80
2010,04,01,07,27,1.90
2010,04,01,07,28,1.90
2010,04,01,07,29,1.90
2010,04,01,07,30,1.90
2010,04,01,07,31,1.90
2010,04,01,07,32,1.90
2010,04,01,07,33,1.90
2010,04,01,07,34,1.90
2010,04,01,07,35,1.90
2010,04,01,07,36,1.90
2010,04,01,07,37,1.90
2010,04,01,07,38,1.90
2010,04,01,07,39,1.90
2010,04,01,07,40,2.00
2010,04,01,07,41,2.00
2010,04,01,07,42,2.00
2010,04,01,07,43,2.00
2010,04,01,07,44,2.00
2010,04,01,07,45,2.00
2010,04,01,07,46,2.10
2010,04,01,07,47,2.10
2010,04,01,07,48,2.10
2010,04,01,07,49,2.20
2010,04,01,07,50,2.20
2010,04,01,07,51,2.20
2010,04,01,07,52,2.20
2010,04,01,07,53,2.20
2010,04,01,07,54,2.20
2010,04,01,07,55,2.20
2010,04,01,07,56,2.20
2010,04,01,07,57,2.30
2010,04,01,07,58,2.30
2010,04,01,07,59,2.30
2010,04,01,08,00,2.30
2010,04,01,08,01,2.30
2010,04,01,08,02,2.30
2010,04,01,08,03,2.30
2010,04,01,08,04,2.30
2010,04,01,08,05,2.30
2010,04,01,08,06,2.40
2010,04,01,08,07,2.40
2010,04,01,08,08,2.40
2010,04,01,08,09,2.40
2010,04,01,08,10,2.40
2010,04,01,08,11,2.40
2010,04,01,08,12,2.40
2010,04,01,08,13,2.40
2010,04,01,08,14,2.50
2010,04,01,08,15,2.50
2010,04,01,08,16,2.50
2010,04,01,08,17,2.60
2010,04,01,08,18,2.60
2010,04,01,08,19,2.60
2010,04,01,08,20,2.70
2010,04,01,08,21,2.70
2010,04,01,08,22,2.70
2010,04,01,08,23,2.70
2010,04,01,08,24,2.70
2010,04,01,08,25,2.70
2010,04,01,08,26,2.80
2010,04,01,08,27,2.80
2010,04,01,08,28,2.80
2010,04,01,08,29,2.80
2010,04,01,08,30,2.80
2010,04,01,08,31,2.80
2010,04,01,08,32,2.80
2010,04,01,08,33,2.80
2010,04,01,08,34,2.90
2010,04,01,08,35,2.90
2010,04,01,08,36,2.90
2010,04,01,08,37,3.00
2010,04,01,08,38,3.00
2010,04,01,08,39,3.10
2010,04,01,08,40,3.10
2010,04,01,08,41,3.10
2010,04,01,08,42,3.10
2010,04,01,08,43,3.10
2010,04,01,08,44,3.10
2010,04,01,08,45,3.10
2010,04,01,08,46,3.20
2010,04,01,08,47,3.20
2010,04,01,08,48,3.20
2010,04,01,08,49,3.30
2010,04,01,08,50,3.30
2010,04,01,08,51,3.30
2010,04,01,08,52,3.30
2010,04,01,08,53,3.40
2010,04,01,08,54,3.40
2010,04,01,08,55,3.40
2010,04,01,08,56,3.40
2010,04,01,08,57,3.50
2010,04,01,08,58,3.50
2010,04,01,08,59,3.60
2010,04,01,09,00,3.60
2010,04,01,09,01,3.60
2010,04,01,09,02,3.60
2010,04,01,09,03,3.70
2010,04,01,09,04,3.70
2010,04,01,09,05,3.70
2010,04,01,09,06,3.70
2010,04,01,09,07,3.70
2010,04,01,09,08,3.80
2010,04,01,09,09,3.80
2010,04,01,09,10,3.80
2010,04,01,09,11,3.80
2010,04,01,09,12,3.80
2010,04,01,09,13,3.80
2010,04,01,09,14,3.80
2010,04,01,09,15,3.80
2010,04,01,09,16,3.80
2010,04,01,09,17,3.80
2010,04,01,09,18,3.80
2010,04,01,09,19,3.80
2010,04,01,09,20,3.90
2010,04,01,09,21,3.90
2010,04,01,09,22,3.90
2010,04,01,09,23,4.00
2010,04,01,09,24,4.00
2010,04,01,09,25,4.10
2010,04,01,09,26,4.20
2010,04,01,09,27,4.20
2010,04,01,09,28,4.30
2010,04,01,09,29,4.30
2010,04,01,09,30,4.40
2010,04,01,09,31,4.50
2010,04,01,09,32,4.60
2010,04,01,09,33,4.70
2010,04,01,09,34,4.70
2010,04,01,09,35,4.80
2010,04,01,09,36,4.80
2010,04,01,09,37,4.90
2010,04,01,09,38,5.00
2010,04,01,09,39,5.00
2010,04,01,09,40,5.10
2010,04,01,09,41,5.10
2010,04,01,09,42,5.20
2010,04,01,09,43,5.30
2010,04,01,09,44,5.30
2010,04,01,09,45,5.40
2010,04,01,09,46,5.50
2010,04,01,09,47,5.50
2010,04,01,09,48,5.60
2010,04,01,09,49,5.60
2010,04,01,09,50,5.60
2010,04,01,09,51,5.60
2010,04,01,09,52,5.70
2010,04,01,09,53,5.70
2010,04,01,09,54,5.70
2010,04,01,09,55,5.70
2010,04,01,09,56,5.80
2010,04,01,09,57,5.80
2010,04,01,09,58,5.80
2010,04,01,09,59,5.80
2010,04,01,10,00,5.80
2010,04,01,10,01,5.90
2010,04,01,10,02,5.90
2010,04,01,10,03,5.90
2010,04,01,10,04,6.00
2010,04,01,10,05,6.10
2010,04,01,10,06,6.20
2010,04,01,10,07,6.20
2010,04,01,10,08,6.30
2010,04,01,10,09,6.40
2010,04,01,10,10,6.50
2010,04,01,10,11,6.60
2010,04,01,10,12,6.70
2010,04,01,10,13,6.80
2010,04,01,10,14,6.80
2010,04,01,10,15,6.90
2010,04,01,10,16,7.00
2010,04,01,10,17,7.00
2010,04,01,10,18,7.10
2010,04,01,10,19,7.00
2010,04,01,10,20,7.00
2010,04,01,10,21,7.10
2010,04,01,10,22,7.10
2010,04,01,10,23,7.10
2010,04,01,10,24,7.20
2010,04,01,10,25,7.20
2010,04,01,10,26,7.30
2010,04,01,10,27,7.30
2010,04,01,10,28,7.40
2010,04,01,10,29,7.40
2010,04,01,10,30,7.50
2010,04,01,10,31,7.50
2010,04,01,10,32,7.50
2010,04,01,10,33,7.60
2010,04,01,10,34,7.70
2010,04,01,10,35,7.80
2010,04,01,10,36,7.80
2010,04,01,10,37,7.90
2010,04,01,10,38,8.00
2010,04,01,10,39,8.10
2010,04,01,10,40,8.20
2010,04,01,10,41,8.20
2010,04,01,10,42,8.30
2010,04,01,10,43,8.40
2010,04,01,10,44,8.50
2010,04,01,10,45,8.50
2010,04,01,10,46,8.60
2010,04,01,10,47,8.60
2010,04,01,10,48,8.60
2010,04,01,10,49,8.60
2010,04,01,10,50,8.60
2010,04,01,10,51,8.60
2010,04,01,10,52,8.70
2010,04,01,10,53,8.80
2010,04,01,10,54,8.80
2010,04,01,10,55,8.90
2010,04,01,10,56,8.90
2010,04,01,10,57,8.90
2010,04,01,10,58,8.80
2010,04,01,10,59,8.80
2010,04,01,11,00,8.80
2010,04,01,11,01,8.90
2010,04,01,11,02,8.90
2010,04,01,11,03,8.90
2010,04,01,11,04,8.90
2010,04,01,11,05,8.90
2010,04,01,11,06,8.90
2010,04,01,11,07,8.90
2010,04,01,11,08,8.90
2010,04,01,11,09,8.90
2010,04,01,11,10,9.00
2010,04,01,11,11,9.10
2010,04,01,11,12,9.10
2010,04,01,11,13,9.10
2010,04,01,11,14,9.00
2010,04,01,11,15,9.00
2010,04,01,11,16,9.00
2010,04,01,11,17,9.00
2010,04,01,11,18,9.10
2010,04,01,11,19,9.20
2010,04,01,11,20,9.20
2010,04,01,11,21,9.20
2010,04,01,11,22,9.20
2010,04,01,11,23,9.20
2010,04,01,11,24,9.20
2010,04,01,11,25,9.10
2010,04,01,11,26,9.10
2010,04,01,11,27,9.20
2010,04,01,11,28,9.20
2010,04,01,11,29,9.20
2010,04,01,11,30,9.20
2010,04,01,11,31,9.20
2010,04,01,11,32,9.20
2010,04,01,11,33,9.20
2010,04,01,11,34,9.10
2010,04,01,11,35,9.00
2010,04,01,11,36,8.90
2010,04,01,11,37,8.90
2010,04,01,11,38,8.80
2010,04,01,11,39,8.80
2010,04,01,11,40,8.80
2010,04,01,11,41,8.80
2010,04,01,11,42,8.80
2010,04,01,11,43,8.80
2010,04,01,11,44,8.70
2010,04,01,11,45,8.70
2010,04,01,11,46,8.60
2010,04,01,11,47,8.60
2010,04,01,11,48,8.60
2010,04,01,11,49,8.50
2010,04,01,11,50,8.50
2010,04,01,11,51,8.40
2010,04,01,11,52,8.40
2010,04,01,11,53,8.40
2010,04,01,11,54,8.30
2010,04,01,11,55,8.30
2010,04,01,11,56,8.30
2010,04,01,11,57,8.20
2010,04,01,11,58,8.20
2010,04,01,11,59,8.10
2010,04,01,12,00,8.10
2010,04,01,12,01,8.00
2010,04,01,12,02,8.00
2010,04,01,12,03,8.00
2010,04,01,12,04,8.00
2010,04,01,12,05,8.00
2010,04,01,12,06,8.10
2010,04,01,12,07,8.10
2010,04,01,12,08,8.10
2010,04,01,12,09,8.10
2010,04,01,12,10,8.20
2010,04,01,12,11,8.20
2010,04,01,12,12,8.30
2010,04,01,12,13,8.30
2010,04,01,12,14,8.30
2010,04,01,12,15,8.30
2010,04,01,12,16,8.30
2010,04,01,12,17,8.40
2010,04,01,12,18,8.40
2010,04,01,12,19,8.40
2010,04,01,12,20,8.50
2010,04,01,12,21,8.50
2010,04,01,12,22,8.60
2010,04,01,12,23,8.60
2010,04,01,12,24,8.60
2010,04,01,12,25,8.60
2010,04,01,12,26,8.60
2010,04,01,12,27,8.60
2010,04,01,12,28,8.70
2010,04,01,12,29,8.70
2010,04,01,12,30,8.80
2010,04,01,12,31,8.80
2010,04,01,12,32,8.80
2010,04,01,12,33,8.90
2010,04,01,12,34,8.90
2010,04,01,12,35,8.90
2010,04,01,12,36,8.90
2010,04,01,12,37,8.90
2010,04,01,12,38,8.80
2010,04,01,12,39,8.80
2010,04,01,12,40,8.80
2010,04,01,12,41,8.80
2010,04,01,12,42,8.90
2010,04,01,12,43,8.90
2010,04,01,12,44,9.00
2010,04,01,12,45,9.00
2010,04,01,12,46,9.00
2010,04,01,12,47,9.10
2010,04,01,12,48,9.10
2010,04,01,12,49,9.10
2010,04,01,12,50,9.00
2010,04,01,12,51,9.00
2010,04,01,12,52,9.00
2010,04,01,12,53,8.90
2010,04,01,12,54,8.90
2010,04,01,12,55,8.80
2010,04,01,12,56,8.80
2010,04,01,12,57,8.70
2010,04,01,12,58,8.70
2010,04,01,12,59,8.70
2010,04,01,13,00,8.70
2010,04,01,13,01,8.70
2010,04,01,13,02,8.70
2010,04,01,13,03,8.70
2010,04,01,13,04,8.70
2010,04,01,13,05,8.70
2010,04,01,13,06,8.70
2010,04,01,13,07,8.70
2010,04,01,13,08,8.70
2010,04,01,13,09,8.70
2010,04,01,13,10,8.70
2010,04,01,13,11,8.70
2010,04,01,13,12,8.70
2010,04,01,13,13,8.70
2010,04,01,13,14,8.80
2010,04,01,13,15,8.80
2010,04,01,13,16,8.80
2010,04,01,13,17,8.80
2010,04,01,13,18,8.80
2010,04,01,13,19,8.80
2010,04,01,13,20,8.80
2010,04,01,13,21,8.80
2010,04,01,13,22,8.80
2010,04,01,13,23,8.80
2010,04,01,13,24,8.80
2010,04,01,13,25,8.80
2010,04,01,13,26,8.80
2010,04,01,13,27,8.80
2010,04,01,13,28,8.80
2010,04,01,13,29,8.80
2010,04,01,13,30,8.80
2010,04,01,13,31,8.80
2010,04,01,13,32,8.80
2010,04,01,13,33,8.80
2010,04,01,13,34,8.80
2010,04,01,13,35,8.80
2010,04,01,13,36,8.90
2010,04,01,13,37,8.90
2010,04,01,13,38,8.90
2010,04,01,13,39,8.90
2010,04,01,13,40,9.00
2010,04,01,13,41,8.90
2010,04,01,13,42,8.80
2010,04,01,13,43,8.70
2010,04,01,13,44,8.50
2010,04,01,13,45,8.40
2010,04,01,13,46,8.20
2010,04,01,13,47,8.20
2010,04,01,13,48,8.10
2010,04,01,13,49,8.10
2010,04,01,13,50,8.10
2010,04,01,13,51,8.00
2010,04,01,13,52,7.90
2010,04,01,13,53,7.90
2010,04,01,13,54,7.80
2010,04,01,13,55,7.80
2010,04,01,13,56,7.70
2010,04,01,13,57,7.70
2010,04,01,13,58,7.60
2010,04,01,13,59,7.60
2010,04,01,14,00,7.60
2010,04,01,14,01,7.50
2010,04,01,14,02,7.50
2010,04,01,14,03,7.50
2010,04,01,14,04,7.50
2010,04,01,14,05,7.50
2010,04,01,14,06,7.50
2010,04,01,14,07,7.60
2010,04,01,14,08,7.60
2010,04,01,14,09,7.60
2010,04,01,14,10,7.60
2010,04,01,14,11,7.60
2010,04,01,14,12,7.60
2010,04,01,14,13,7.60
2010,04,01,14,14,7.60
2010,04,01,14,15,7.60
2010,04,01,14,16,7.60
2010,04,01,14,17,7.70
2010,04,01,14,18,7.70
2010,04,01,14,19,7.70
2010,04,01,14,20,7.70
2010,04,01,14,21,7.80
2010,04,01,14,22,7.80
2010,04,01,14,23,7.80
2010,04,01,14,24,7.80
2010,04,01,14,25,7.80
2010,04,01,14,26,7.80
2010,04,01,14,27,7.80
2010,04,01,14,28,7.80
2010,04,01,14,29,7.80
2010,04,01,14,30,7.80
2010,04,01,14,31,7.80
2010,04,01,14,32,7.80
2010,04,01,14,33,7.90
2010,04,01,14,34,7.90
2010,04,01,14,35,7.90
2010,04,01,14,36,7.90
2010,04,01,14,37,8.00
2010,04,01,14,38,8.00
2010,04,01,14,39,8.10
2010,04,01,14,40,8.10
2010,04,01,14,41,8.10
2010,04,01,14,42,8.20
2010,04,01,14,43,8.30
2010,04,01,14,44,8.30
2010,04,01,14,45,8.40
2010,04,01,14,46,8.40
2010,04,01,14,47,8.40
2010,04,01,14,48,8.40
2010,04,01,14,49,8.40
2010,04,01,14,50,8.40
2010,04,01,14,51,8.40
2010,04,01,14,52,8.40
2010,04,01,14,53,8.40
2010,04,01,14,54,8.40
2010,04,01,14,55,8.30
2010,04,01,14,56,8.30
2010,04,01,14,57,8.20
2010,04,01,14,58,8.20
2010,04,01,14,59,8.20
2010,04,01,15,00,8.20
2010,04,01,15,01,8.20
2010,04,01,15,02,8.10
2010,04,01,15,03,8.10
2010,04,01,15,04,8.10
2010,04,01,15,05,8.10
2010,04,01,15,06,8.10
2010,04,01,15,07,8.00
2010,04,01,15,08,8.00
2010,04,01,15,09,8.00
2010,04,01,15,10,8.00
2010,04,01,15,11,8.00
2010,04,01,15,12,7.90
2010,04,01,15,13,7.90
2010,04,01,15,14,7.90
2010,04,01,15,15,7.90
2010,04,01,15,16,7.90
2010,04,01,15,17,7.90
2010,04,01,15,18,7.90
2010,04,01,15,19,7.80
2010,04,01,15,20,7.80
2010,04,01,15,21,7.80
2010,04,01,15,22,7.80
2010,04,01,15,23,7.70
2010,04,01,15,24,7.70
2010,04,01,15,25,7.60
2010,04,01,15,26,7.50
2010,04,01,15,27,7.50
2010,04,01,15,28,7.40
2010,04,01,15,29,7.40
2010,04,01,15,30,7.30
2010,04,01,15,31,7.20
2010,04,01,15,32,7.20
2010,04,01,15,33,7.10
2010,04,01,15,34,7.10
2010,04,01,15,35,7.10
2010,04,01,15,36,7.10
2010,04,01,15,37,7.00
2010,04,01,15,38,6.90
2010,04,01,15,39,6.80
2010,04,01,15,40,6.60
2010,04,01,15,41,6.60
2010,04,01,15,42,6.50
2010,04,01,15,43,6.50
2010,04,01,15,44,6.30
2010,04,01,15,45,6.30
2010,04,01,15,46,6.30
2010,04,01,15,47,6.30
2010,04,01,15,48,6.20
2010,04,01,15,49,6.20
2010,04,01,15,50,6.20
2010,04,01,15,51,6.20
2010,04,01,15,52,6.20
2010,04,01,15,53,6.20
2010,04,01,15,54,6.20
2010,04,01,15,55,6.30
2010,04,01,15,56,6.30
2010,04,01,15,57,6.30
2010,04,01,15,58,6.40
2010,04,01,15,59,6.40
2010,04,01,16,00,6.50
2010,04,01,16,01,6.50
2010,04,01,16,02,6.50
2010,04,01,16,03,6.60
2010,04,01,16,04,6.70
2010,04,01,16,05,6.70
2010,04,01,16,06,6.80
2010,04,01,16,07,6.80
2010,04,01,16,08,6.90
2010,04,01,16,09,6.90
2010,04,01,16,10,7.00
2010,04,01,16,11,7.10
2010,04,01,16,12,7.20
2010,04,01,16,13,7.20
2010,04,01,16,14,7.20
2010,04,01,16,15,7.20
2010,04,01,16,16,7.20
2010,04,01,16,17,7.30
2010,04,01,16,18,7.30
2010,04,01,16,19,7.40
2010,04,01,16,20,7.40
2010,04,01,16,21,7.50
2010,04,01,16,22,7.60
2010,04,01,16,23,7.60
2010,04,01,16,24,7.60
2010,04,01,16,25,7.50
2010,04,01,16,26,7.50
2010,04,01,16,27,7.60
2010,04,01,16,28,7.50
2010,04,01,16,29,7.50
2010,04,01,16,30,7.40
2010,04,01,16,31,7.30
2010,04,01,16,32,7.30
2010,04,01,16,33,7.30
2010,04,01,16,34,7.30
2010,04,01,16,35,7.30
2010,04,01,16,36,7.30
2010,04,01,16,37,7.30
2010,04,01,16,38,7.30
2010,04,01,16,39,7.40
2010,04,01,16,40,7.40
2010,04,01,16,41,7.40
2010,04,01,16,42,7.40
2010,04,01,16,43,7.40
2010,04,01,16,44,7.40
2010,04,01,16,45,7.40
2010,04,01,16,46,7.40
2010,04,01,16,47,7.40
2010,04,01,16,48,7.40
2010,04,01,16,49,7.40
2010,04,01,16,50,7.40
2010,04,01,16,51,7.40
2010,04,01,16,52,7.40
2010,04,01,16,53,7.50
2010,04,01,16,54,7.50
2010,04,01,16,55,7.50
2010,04,01,16,56,7.50
2010,04,01,16,57,7.60
2010,04,01,16,58,7.60
2010,04,01,16,59,7.60
2010,04,01,17,00,7.70
2010,04,01,17,01,7.70
2010,04,01,17,02,7.70
2010,04,01,17,03,7.70
2010,04,01,17,04,7.60
2010,04,01,17,05,7.70
2010,04,01,17,06,7.60
2010,04,01,17,07,7.60
2010,04,01,17,08,7.60
2010,04,01,17,09,7.60
2010,04,01,17,10,7.50
2010,04,01,17,11,7.50
2010,04,01,17,12,7.50
2010,04,01,17,13,7.50
2010,04,01,17,14,7.50
2010,04,01,17,15,7.50
2010,04,01,17,16,7.50
2010,04,01,17,17,7.60
2010,04,01,17,18,7.60
2010,04,01,17,19,7.70
2010,04,01,17,20,7.70
2010,04,01,17,21,7.70
2010,04,01,17,22,7.70
2010,04,01,17,23,7.80
2010,04,01,17,24,7.70
2010,04,01,17,25,7.60
2010,04,01,17,26,7.60
2010,04,01,17,27,7.60
2010,04,01,17,28,7.60
2010,04,01,17,29,7.50
2010,04,01,17,30,7.50
2010,04,01,17,31,7.40
2010,04,01,17,32,7.50
2010,04,01,17,33,7.40
2010,04,01,17,34,7.50
2010,04,01,17,35,7.60
2010,04,01,17,36,7.60
2010,04,01,17,37,7.70
2010,04,01,17,38,7.70
2010,04,01,17,39,7.80
2010,04,01,17,40,7.80
2010,04,01,17,41,7.80
2010,04,01,17,42,7.80
2010,04,01,17,43,7.80
2010,04,01,17,44,7.80
2010,04,01,17,45,7.80
2010,04,01,17,46,7.80
2010,04,01,17,47,7.80
2010,04,01,17,48,7.80
2010,04,01,17,49,7.80
2010,04,01,17,50,7.80
2010,04,01,17,51,7.80
2010,04,01,17,52,7.70
2010,04,01,17,53,7.70
2010,04,01,17,54,7.70
2010,04,01,17,55,7.60
2010,04,01,17,56,7.60
2010,04,01,17,57,7.60
2010,04,01,17,58,7.60
2010,04,01,17,59,7.50
2010,04,01,18,00,7.40
2010,04,01,18,01,7.40
2010,04,01,18,02,7.40
2010,04,01,18,03,7.40
2010,04,01,18,04,7.30
2010,04,01,18,05,7.30
2010,04,01,18,06,7.40
2010,04,01,18,07,7.30
2010,04,01,18,08,7.30
2010,04,01,18,09,7.30